This is the latest recevied weather packets stored in our database for station/object K0JRF-13. If no packets are shown the sender has not sent any weather packets the latest 10 day(s).
| Time | Temp. | Humidity | Pressure | Rain* | Wind** | Luminosity | Snow |
|---|---|---|---|---|---|---|---|
| 1787861388 | 22.78° C | 75% | 1013.9 hPa | 0 mm | - | - | - |
| 1787860788 | 22.78° C | 75% | 1014.2 hPa | 0 mm | - | - | - |
| 1787860188 | 22.78° C | 74% | 1013.9 hPa | 0 mm | - | - | - |
| 1787859588 | 23.89° C | 78% | 1013.9 hPa | 0 mm | - | - | - |
| 1787858988 | 23.89° C | 77% | 1013.9 hPa | 0 mm | - | - | - |
| 1787858388 | 23.89° C | 80% | 1013.9 hPa | 0 mm | - | - | - |
| 1787857788 | 23.89° C | 79% | 1013.9 hPa | 0 mm | - | - | - |
| 1787857189 | 23.89° C | 79% | 1013.9 hPa | 0 mm | - | - | - |
| 1787856588 | 23.89° C | 79% | 1014.2 hPa | 0 mm | - | - | - |
| 1787855988 | 23.89° C | 78% | 1014.2 hPa | 0 mm | - | - | - |
| 1787855388 | 23.89° C | 76% | 1014.2 hPa | 0 mm | - | - | - |
| 1787854789 | 23.89° C | 79% | 1013.9 hPa | 0 mm | - | - | - |
| 1787854188 | 23.89° C | 79% | 1013.9 hPa | 0 mm | - | - | - |
| 1787853588 | 23.89° C | 79% | 1013.9 hPa | 0 mm | - | - | - |
| 1787852988 | 23.89° C | 76% | 1013.9 hPa | 0 mm | - | - | - |
| 1787852388 | 22.78° C | 76% | 1013.9 hPa | 0 mm | - | - | - |
| 1787851789 | 23.33° C | 75% | 1013.9 hPa | 0 mm | - | - | - |
| 1787851188 | 22.78° C | 74% | 1013.9 hPa | 0 mm | - | - | - |
| 1787850588 | 22.78° C | 74% | 1013.9 hPa | 0 mm | - | - | - |
| 1787849989 | 22.78° C | 74% | 1013.5 hPa | 0 mm | - | - | - |
| 1787849388 | 23.89° C | 75% | 1013.5 hPa | 0 mm | - | - | - |
| 1787848789 | 23.89° C | 74% | 1013.5 hPa | 0 mm | - | - | - |
| 1787848188 | 23.33° C | 73% | 1013.9 hPa | 0 mm | - | - | - |
| 1787847588 | 23.33° C | 74% | 1013.9 hPa | 0 mm | - | - | - |
| 1787846988 | 23.33° C | 75% | 1013.9 hPa | 0 mm | - | - | - |
* Rain latest hour (hover to see other rain measurements)
** Current wind speed in m/s (hover to see current wind gust speed)